Location: Rounton
(54.4000°N, 1.3500°W)
Time: 10:10:23
(UTC+01:00)

A-11 Canister half - Pass Details

Date: 05 July 2022
Orbit: 1525 x 1683 km, 47.3° (Epoch: 10 August)

Event Time Altitude Azimuth Distance (km) Brightness Sun altitude
Rises 23:02:15 0° 283° (WNW) 4,721 12.3 -8.1°
Reaches altitude 10° 23:05:58 10° 272° (W) 3,718 11.5 -8.4°
Maximum altitude 23:13:07 26° 221° (SW) 2,671 10.1 -8.9°
Drops below altitude 10° 23:20:13 10° 170° (S) 3,687 10.4 -9.3°
Enters shadow 23:20:25 - 170° (S) 3,736 10.4 -9.4°
